Find Starlink 31053

NORAD ID: 58549 Int'l Des: 2023-192 Owner: SPXS Country: US Constellation: starlink operational
LEOCIRCULAR

Current View

Loading 3D Globe...

About Starlink 31053

Starlink 31053 (NORAD 58549) is a starlink constellation satellite (v2 mini) launched Dec 8, 2023 by SPXS of US. It operates in LEO, CIRCULAR orbit with a mass of 730.00 kg.

About Starlink 31053

Description loading...

Upcoming Passes

Passes for default location (London). Set your location on the main map for personalized predictions.

Altitude History

Loading altitude history...

Two-Line Element Set

1 58549U 23192U 26171.35666394 .00006563 00000-0 20516-3 0 9994
2 58549 53.1588 304.4829 0000799 76.7588 283.3503 15.34404942141724
Epoch: Jun 20, 2026 • Age: 16 hours

Current Status

Altitude 466.6 km
Velocity 7.64 km/s
Sub-Earth Point 43.33°N, 156.67°E
Launch Date Dec 8, 2023
Age 2.5 years
Type internet

Technical Details

Classification Payload
Mass 730.00 kg
Dry Mass 700.00 kg
Total Mass 730.00 kg
Length 0.30 m
Diameter 4.10 m
Span 29.00 m
Shape Box + pan
Manufacturer SPXS
Bus Type Starlink V2M
Phase Status In Orbit
Owner/State SPXS/US

Most Searched